GW5072 Weather Reports


time (UTC)temp
F
wind
direction
speed
knots
gust
knots
rain 1hr
in
rain 24hr
in
rain mn
in
humidity
%
barometer
mb
20260903235509 79 91 0.0 0.0 0.00 1.03 0.10 91 1012.8
20260903235008 79 91 0.0 0.0 0.00 1.03 0.10 91 1012.9
20260903234509 79 90 0.0 0.0 0.00 1.03 0.10 91 1013.0
20260903234013 79 91 0.0 0.0 0.00 1.03 0.10 91 1012.9
20260903233506 79 91 0.0 0.0 0.00 1.03 0.10 91 1013.0
20260903233029 79 91 0.0 0.0 0.00 1.03 0.10 90 1013.0
20260903232510 79 91 0.0 0.0 0.00 1.03 0.10 91 1013.1
20260903232005 79 67 0.0 0.0 0.00 1.03 0.10 91 1013.1
20260903231528 79 67 0.0 0.0 0.00 1.03 0.10 90 1013.1
20260903231008 79 67 0.0 0.0 0.00 1.03 0.10 91 1013.1
20260903230503 79 67 0.0 0.0 0.00 1.03 0.10 91 1013.1
20260903230027 79 67 0.0 0.0 0.00 1.03 0.10 91 1013.2
20260903225508 79 65 0.0 0.0 0.00 1.03 0.10 91 1013.0
20260903225018 79 65 0.0 0.0 0.00 1.03 0.10 91 1013.1
20260903224520 79 65 0.0 0.0 0.00 1.03 0.10 91 1013.1
20260903224003 79 62 0.0 0.0 0.00 1.03 0.10 91 1013.1
20260903223515 79 60 0.0 0.0 0.00 1.03 0.10 91 1013.0
20260903223022 78 83 0.0 0.0 0.00 1.03 0.10 91 1012.9
20260903222504 78 72 0.0 0.0 0.00 1.03 0.10 91 1012.8
20260903222013 79 76 0.0 0.0 0.00 1.03 0.10 91 1013.0
20260903221522 79 75 0.0 0.0 0.00 1.03 0.10 92 1013.1
20260903221013 78 75 0.0 0.0 0.00 1.03 0.10 93 1013.0
20260903220515 78 75 0.0 0.0 0.00 1.03 0.10 92 1013.1
20260903220012 78 82 0.0 0.0 0.00 1.03 0.10 93 1013.2
20260903215516 78 84 0.0 0.0 0.00 1.03 0.10 93 1013.3
20260903215010 78 84 0.0 0.0 0.00 1.03 0.10 94 1013.4
20260903214533 78 84 0.0 0.0 0.00 1.03 0.10 94 1013.5
20260903214020 77 84 0.0 0.0 0.00 1.03 0.10 94 1013.5
20260903213511 77 84 0.0 0.0 0.00 1.03 0.10 95 1013.5
20260903213029 77 84 0.0 0.0 0.00 1.03 0.10 95 1013.6
20260903212512 76 84 0.0 0.0 0.00 1.03 0.10 95 1013.6
20260903212009 76 84 0.0 0.0 0.00 1.03 0.10 95 1013.8
20260903211528 76 84 0.0 0.0 0.00 1.03 0.10 95 1013.8
20260903211009 76 84 0.0 0.0 0.00 1.03 0.10 95 1013.9
20260903210517 76 84 0.0 0.0 0.00 1.03 0.10 95 1014.0
20260903210028 76 84 0.0 0.0 0.00 1.03 0.10 95 1013.9
20260903205508 76 84 0.0 0.0 0.00 1.03 0.10 95 1014.1
20260903205014 76 84 0.0 0.0 0.00 1.03 0.10 95 1014.0
20260903204528 76 84 0.0 0.0 0.00 1.03 0.10 95 1014.0
20260903204007 76 84 0.0 0.0 0.00 1.03 0.10 95 1014.1
20260903203512 76 84 0.0 0.0 0.00 1.03 0.10 95 1014.2
20260903203018 76 84 0.0 0.0 0.00 1.03 0.10 95 1014.0
20260903202516 76 84 0.0 0.0 0.00 1.03 0.10 95 1014.1
20260903202012 76 84 0.0 0.0 0.00 1.03 0.10 95 1014.2
20260903201517 76 84 0.0 0.0 0.00 1.03 0.10 95 1014.2
20260903201018 76 84 0.0 0.0 0.00 1.03 0.10 95 1014.2
20260903200513 76 84 0.0 0.0 0.00 1.03 0.10 95 1014.1
20260903200033 76 84 0.0 0.0 0.00 1.03 0.10 96 1014.0
20260903195514 76 84 0.0 0.0 0.00 1.03 0.10 96 1014.1
20260903195015 76 84 0.0 0.0 0.00 1.03 0.10 95 1014.1
20260903194531 76 84 0.0 0.0 0.00 1.03 0.10 95 1014.1
20260903194013 76 84 0.0 0.0 0.00 1.03 0.10 95 1014.2
20260903193509 76 84 0.0 0.0 0.00 1.03 0.10 95 1014.2
20260903193032 76 84 0.0 0.0 0.00 1.03 0.10 95 1014.4
20260903192510 76 84 0.0 0.0 0.00 1.03 0.10 95 1014.6
20260903192014 76 84 0.0 0.0 0.01 1.03 0.10 95 1014.8
20260903191528 76 84 0.0 0.0 0.04 1.03 0.10 95 1015.0
20260903191012 76 84 0.0 0.0 0.05 1.03 0.10 95 1014.9
20260903190513 75 83 0.0 0.0 0.05 1.03 0.10 94 1014.7
20260903190031 76 81 0.0 0.0 0.05 1.03 0.10 94 1014.7
20260903185509 75 44 0.0 0.0 0.05 1.03 0.10 94 1014.8
20260903185013 75 84 0.0 0.0 0.05 1.03 0.10 94 1015.0
20260903184527 75 85 0.0 0.0 0.05 1.03 0.10 93 1015.1
20260903184017 75 90 0.0 0.0 0.05 1.03 0.10 92 1015.2
20260903183513 76 94 0.0 0.0 0.05 1.03 0.10 91 1015.2
20260903183022 76 86 0.0 0.0 0.05 1.03 0.10 90 1015.3
20260903182519 77 84 0.0 0.9 0.05 1.03 0.10 88 1015.2
20260903182013 78 118 0.0 0.9 0.04 1.02 0.09 86 1015.3
20260903181520 80 70 0.0 0.9 0.01 0.99 0.06 88 1015.2
20260903181016 81 338 0.0 0.9 0.00 0.98 0.05 86 1015.2
20260903180514 82 194 0.0 0.0 0.00 0.98 0.05 85 1015.3
20260903180045 83 194 0.0 0.0 0.00 0.98 0.05 82 1015.3
20260903175515 83 194 0.0 0.0 0.00 0.98 0.05 81 1015.2
20260903175011 84 179 0.0 0.0 0.00 0.98 0.05 81 1015.1
20260903174535 84 155 0.0 0.0 0.00 0.98 0.05 88 1015.0
20260903174013 84 155 0.0 0.0 0.00 0.98 0.05 87 1015.0
20260903173520 84 211 0.0 0.0 0.00 0.98 0.05 87 1015.1
20260903173030 84 211 0.0 0.0 0.00 0.98 0.05 86 1015.0
20260903172511 85 212 0.0 0.0 0.00 0.98 0.05 86 1014.9
20260903172020 85 210 0.0 0.0 0.00 0.98 0.05 85 1014.9
20260903171540 85 210 0.0 0.0 0.00 0.98 0.05 86 1014.9
20260903171011 85 210 0.0 0.0 0.00 0.98 0.05 85 1014.8
20260903170518 85 210 0.0 0.0 0.00 0.98 0.05 85 1014.8
20260903170012 85 213 0.0 0.0 0.00 0.98 0.05 85 1015.0
20260903165510 85 214 0.0 0.0 0.00 0.98 0.05 87 1015.0
20260903165004 85 212 0.0 0.0 0.00 0.98 0.05 89 1015.0
20260903164525 84 212 0.0 0.9 0.00 0.98 0.05 90 1015.1
20260903164008 84 212 0.0 1.7 0.00 0.98 0.05 91 1015.3
20260903163505 84 208 0.0 1.7 0.00 0.98 0.05 90 1015.3
20260903163027 84 220 0.0 0.0 0.00 0.98 0.05 92 1015.1
20260903162506 83 220 0.0 0.0 0.00 0.98 0.05 92 1014.9
20260903162004 83 329 0.0 0.0 0.00 0.98 0.05 94 1014.8
20260903161521 82 330 0.0 0.0 0.00 0.98 0.05 94 1014.8
20260903161005 82 329 0.0 0.0 0.00 0.98 0.05 95 1015.0
20260903160514 82 329 0.0 0.0 0.00 0.98 0.05 95 1015.1
20260903160021 82 329 0.0 0.0 0.00 0.98 0.05 96 1015.1
20260903155504 82 329 0.0 0.0 0.00 0.98 0.05 96 1015.2
20260903155011 82 333 0.0 0.0 0.00 0.98 0.05 96 1015.1
20260903154514 82 334 0.0 0.0 0.00 0.98 0.05 97 1015.2
20260903154015 81 334 0.0 0.0 0.00 0.98 0.05 97 1015.2
20260903153509 81 333 0.0 0.0 0.00 0.98 0.05 97 1015.2
20260903153012 81 334 0.0 0.0 0.00 0.98 0.05 97 1015.3
20260903152512 81 334 0.0 0.0 0.00 0.98 0.05 97 1015.3
20260903152008 81 334 0.0 0.0 0.00 0.98 0.05 97 1015.3
20260903151513 81 334 0.0 0.0 0.00 0.98 0.05 98 1015.3
20260903151012 80 334 0.0 0.0 0.00 0.98 0.05 97 1015.3
20260903150506 80 334 0.0 0.0 0.00 0.98 0.05 98 1015.4
20260903150055 80 334 0.0 0.0 0.00 0.98 0.05 98 1015.5
20260903145509 80 334 0.0 0.0 0.00 0.98 0.05 98 1015.4
20260903145003 80 334 0.0 0.0 0.00 0.98 0.05 98 1015.5
20260903144534 80 334 0.0 0.0 0.00 0.98 0.05 98 1015.5
20260903144012 80 334 0.0 0.0 0.00 0.98 0.05 98 1015.5
20260903143504 80 334 0.0 0.0 0.00 0.98 0.05 98 1015.6
20260903143029 79 334 0.0 0.0 0.00 0.98 0.05 98 1015.6
20260903142506 79 334 0.0 0.0 0.00 0.98 0.05 98 1015.5
20260903142014 79 334 0.0 0.0 0.00 0.98 0.05 98 1015.4
20260903141528 79 334 0.0 0.0 0.00 0.98 0.05 98 1015.5
20260903141003 79 334 0.0 0.0 0.00 0.98 0.05 98 1015.4
20260903140513 79 334 0.0 0.0 0.00 0.98 0.05 98 1015.3
20260903140034 79 334 0.0 0.0 0.00 0.98 0.05 98 1015.2
20260903135516 79 334 0.0 0.0 0.00 0.98 0.05 98 1015.1
20260903135013 79 334 0.0 0.0 0.00 0.98 0.05 98 1015.1
20260903134529 78 334 0.0 0.0 0.00 0.98 0.05 98 1015.1
20260903134019 78 334 0.0 0.0 0.00 0.98 0.05 98 1015.1
20260903133512 78 334 0.0 0.0 0.00 0.98 0.05 98 1015.0
20260903133030 78 334 0.0 0.0 0.00 0.98 0.05 98 1015.0
20260903132513 78 334 0.0 0.0 0.00 0.98 0.05 98 1015.0
20260903132018 78 334 0.0 0.0 0.00 0.98 0.05 98 1014.9
20260903131532 78 334 0.0 0.0 0.00 0.98 0.05 98 1015.0
20260903131012 78 334 0.0 0.0 0.00 0.98 0.05 98 1014.9
20260903130515 78 314 0.0 0.0 0.00 0.98 0.05 98 1015.0
20260903130031 78 314 0.0 0.0 0.00 0.98 0.05 98 1014.9
20260903125510 78 314 0.0 0.0 0.00 0.98 0.05 98 1014.8
20260903125015 78 314 0.0 0.0 0.00 0.98 0.05 98 1014.7
20260903124533 77 314 0.0 0.0 0.00 0.98 0.05 98 1014.6
20260903124017 77 314 0.0 0.0 0.00 0.98 0.05 98 1014.5
20260903123519 77 314 0.0 0.0 0.00 0.98 0.05 98 1014.5
20260903123034 77 314 0.0 0.0 0.00 0.98 0.05 98 1014.4
20260903122516 77 314 0.0 0.0 0.00 0.98 0.05 98 1014.3
20260903122016 77 314 0.0 0.0 0.00 0.98 0.05 98 1014.2
20260903121527 77 314 0.0 0.0 0.00 0.98 0.05 97 1014.1
20260903121017 77 314 0.0 0.0 0.00 0.98 0.05 97 1014.1
20260903120518 77 314 0.0 0.0 0.00 0.98 0.05 97 1014.1
20260903120031 77 314 0.0 0.0 0.00 0.98 0.05 97 1014.1
20260903115514 77 314 0.0 0.0 0.00 0.98 0.05 97 1014.1
20260903115012 77 314 0.0 0.0 0.00 0.98 0.05 98 1014.0
20260903114531 77 314 0.0 0.0 0.00 0.98 0.05 97 1014.0
20260903114014 77 314 0.0 0.0 0.00 0.98 0.05 97 1014.0
20260903113512 77 314 0.0 0.0 0.00 0.98 0.05 97 1014.0
20260903113031 77 314 0.0 0.0 0.00 0.98 0.05 97 1014.0
20260903112516 77 314 0.0 0.0 0.00 0.98 0.05 97 1014.0
20260903112016 77 314 0.0 0.0 0.00 0.98 0.05 97 1014.0
20260903111533 77 314 0.0 0.0 0.00 0.98 0.05 97 1014.1
20260903111013 77 314 0.0 0.0 0.00 0.98 0.05 97 1014.0
20260903110517 77 314 0.0 0.0 0.00 0.98 0.05 97 1014.0
20260903110007 77 314 0.0 0.0 0.00 0.98 0.05 97 1014.0
20260903105513 78 314 0.0 0.0 0.00 0.98 0.05 97 1013.8
20260903105008 77 314 0.0 0.0 0.00 0.98 0.05 97 1013.7
20260903104528 77 314 0.0 0.0 0.00 0.98 0.05 97 1013.7
20260903104012 77 314 0.0 0.0 0.00 0.98 0.05 97 1013.7
20260903103506 77 314 0.0 0.0 0.00 0.98 0.05 97 1013.7
20260903103028 77 314 0.0 0.0 0.00 0.98 0.05 97 1013.8
20260903102508 77 314 0.0 0.0 0.00 0.98 0.05 97 1013.8
20260903102004 78 314 0.0 0.0 0.00 0.98 0.05 97 1013.7
20260903101525 78 314 0.0 0.0 0.00 0.98 0.05 97 1013.7
20260903101012 78 314 0.0 0.0 0.00 0.98 0.05 97 1013.6
20260903100515 78 314 0.0 0.0 0.00 0.98 0.05 97 1013.6
20260903100030 78 314 0.0 0.0 0.00 0.98 0.05 97 1013.6
20260903095506 78 314 0.0 0.0 0.00 0.98 0.05 97 1013.6
20260903095014 78 314 0.0 0.0 0.00 0.98 0.05 97 1013.6
20260903094520 78 314 0.0 0.0 0.00 0.98 0.05 97 1013.6
20260903094005 78 314 0.0 0.0 0.00 0.98 0.05 97 1013.6
20260903093513 78 314 0.0 0.0 0.00 0.98 0.05 97 1013.6
20260903093014 78 314 0.0 0.0 0.00 0.98 0.05 97 1013.6
20260903092519 78 314 0.0 0.0 0.00 0.98 0.05 97 1013.6
20260903092015 78 314 0.0 0.0 0.00 0.98 0.05 97 1013.6
20260903091517 78 314 0.0 0.0 0.00 0.98 0.05 97 1013.6
20260903091012 78 314 0.0 0.0 0.00 0.98 0.05 97 1013.6
20260903090510 78 314 0.0 0.0 0.00 0.98 0.05 97 1013.6
20260903090032 78 314 0.0 0.0 0.00 0.98 0.05 97 1013.5
20260903085513 78 314 0.0 0.0 0.00 0.98 0.05 97 1013.6
20260903085012 78 314 0.0 0.0 0.00 0.98 0.05 97 1013.6
20260903084541 78 314 0.0 0.0 0.00 0.98 0.05 97 1013.7
20260903084009 78 314 0.0 0.0 0.00 0.98 0.05 97 1013.6
20260903083506 78 314 0.0 0.0 0.00 0.98 0.05 97 1013.6
20260903083027 78 314 0.0 0.0 0.00 0.98 0.05 97 1013.5
20260903082511 78 314 0.0 0.0 0.00 0.98 0.05 97 1013.6
20260903082017 78 314 0.0 0.0 0.00 0.98 0.05 97 1013.5
20260903081524 78 314 0.0 0.0 0.00 0.98 0.05 97 1013.5
20260903081006 78 314 0.0 0.0 0.00 0.98 0.05 97 1013.5
20260903080516 78 314 0.0 0.0 0.00 0.98 0.05 97 1013.5
20260903080024 78 314 0.0 0.0 0.00 0.98 0.05 97 1013.4
20260903075503 78 314 0.0 0.0 0.00 0.98 0.05 97 1013.4
20260903075015 78 314 0.0 0.0 0.00 0.98 0.05 97 1013.3
20260903074520 78 314 0.0 0.0 0.00 0.98 0.05 97 1013.3
20260903074015 78 314 0.0 0.0 0.00 0.98 0.05 97 1013.2
20260903073515 78 314 0.0 0.0 0.00 0.98 0.05 97 1013.2
20260903073017 78 314 0.0 0.0 0.00 0.98 0.05 97 1013.2
20260903072515 78 313 0.0 0.0 0.00 0.98 0.05 97 1013.3
20260903072011 78 314 0.0 0.0 0.00 0.98 0.05 97 1013.3
20260903071514 78 86 0.0 0.0 0.00 0.98 0.05 97 1013.3
20260903071011 78 86 0.0 0.0 0.00 0.98 0.05 97 1013.4
20260903070510 78 86 0.0 0.0 0.00 0.98 0.05 97 1013.4
20260903070033 78 86 0.0 0.0 0.01 0.98 0.05 97 1013.4
20260903065512 78 86 0.0 0.0 0.01 0.98 0.05 97 1013.5
20260903065013 78 86 0.0 0.0 0.01 0.98 0.05 97 1013.6
20260903064531 78 86 0.0 0.0 0.01 0.98 0.05 97 1013.6
20260903064011 78 86 0.0 0.0 0.01 0.98 0.05 97 1013.6
20260903063522 78 86 0.0 0.0 0.01 0.98 0.05 97 1013.6
20260903063031 78 86 0.0 0.0 0.01 0.98 0.05 97 1013.6
20260903062511 77 86 0.0 0.0 0.01 0.98 0.05 97 1013.6
20260903062017 77 86 0.0 0.0 0.01 0.98 0.05 97 1013.7
20260903061535 77 86 0.0 0.0 0.02 0.98 0.05 97 1013.8
20260903061019 77 86 0.0 0.0 0.02 0.98 0.05 97 1013.8
20260903060517 77 86 0.0 0.0 0.04 0.98 0.05 97 1013.7
20260903060037 77 86 0.0 0.0 0.04 0.97 0.04 97 1013.9
20260903055515 77 86 0.0 0.0 0.05 0.97 0.04 97 1013.9
20260903055015 77 86 0.0 0.0 0.05 0.97 0.04 97 1013.9
20260903054523 77 86 0.0 0.0 0.06 0.97 0.04 97 1013.9
20260903054014 76 86 0.0 0.0 0.06 0.97 0.04 97 1014.2
20260903053513 76 86 0.0 0.0 0.06 0.97 0.04 97 1014.2
20260903053029 76 86 0.0 0.0 0.06 0.97 0.04 97 1014.2
20260903052516 76 86 0.0 0.0 0.06 0.97 0.04 97 1014.2
20260903052014 76 86 0.0 0.0 0.06 0.97 0.04 97 1014.4
20260903051536 76 86 0.0 0.0 0.05 0.96 0.03 97 1014.5
20260903051015 76 86 0.0 0.0 0.05 0.96 0.03 97 1014.8
20260903050511 76 86 0.0 0.0 0.03 0.94 0.01 97 1014.9
20260903050035 76 86 0.0 0.0 0.02 0.93 0.00 97 1014.9
20260903045517 76 86 0.0 0.0 0.02 0.92 0.92 97 1014.9
20260903045016 76 86 0.0 0.0 0.02 0.92 0.92 96 1014.9
20260903044531 76 86 0.0 0.0 0.01 0.91 0.91 97 1014.9
20260903044012 76 86 0.0 0.0 0.01 0.91 0.91 96 1014.9
20260903043518 76 86 0.0 0.0 0.01 0.91 0.91 96 1015.0
20260903043035 76 86 0.0 0.0 0.01 0.91 0.91 96 1015.1
20260903042511 76 86 0.0 0.0 0.01 0.91 0.91 96 1015.2
20260903042022 76 86 0.0 0.0 0.01 0.91 0.91 96 1015.3
20260903041531 76 86 0.0 0.0 0.01 0.91 0.91 96 1015.4
20260903041019 76 86 0.0 0.0 0.01 0.91 0.91 96 1015.4
20260903040517 76 86 0.0 0.0 0.01 0.91 0.91 96 1015.6
20260903040034 76 86 0.0 0.0 0.01 0.91 0.91 96 1015.5
20260903035517 76 86 0.0 0.0 0.00 0.90 0.90 96 1015.7
20260903035016 76 86 0.0 0.0 0.00 0.90 0.90 96 1015.5
20260903034524 76 86 0.0 0.0 0.00 0.90 0.90 96 1015.2
20260903034016 76 86 0.0 0.0 0.00 0.90 0.90 96 1015.1
20260903033515 76 86 0.0 0.0 0.00 0.90 0.90 96 1015.1
20260903033032 76 86 0.0 0.0 0.00 0.90 0.90 96 1014.9
20260903032515 76 86 0.0 0.0 0.00 0.90 0.90 96 1014.6
20260903032018 76 86 0.0 0.0 0.00 0.90 0.90 96 1014.4
20260903031534 76 86 0.0 0.0 0.00 0.90 0.90 96 1014.4
20260903031015 76 86 0.0 0.0 0.00 0.90 0.90 96 1014.4
20260903030512 76 86 0.0 0.0 0.00 0.90 0.90 96 1014.4
20260903030034 76 86 0.0 0.0 0.00 0.90 0.90 96 1014.3
20260903025519 76 86 0.0 0.0 0.00 0.90 0.90 96 1014.3
20260903025017 76 86 0.0 0.0 0.00 0.90 0.90 96 1014.2
20260903024531 76 86 0.0 0.0 0.00 0.90 0.90 96 1014.1
20260903024014 76 86 0.0 0.0 0.00 0.90 0.90 95 1014.1
20260903023517 76 86 0.0 0.0 0.00 0.90 0.90 95 1014.1
20260903023030 76 86 0.0 0.0 0.00 0.90 0.90 95 1014.0
20260903022518 76 86 0.0 0.0 0.00 0.90 0.90 95 1013.9
20260903022019 76 86 0.0 0.0 0.00 0.90 0.90 95 1013.7
20260903021528 76 86 0.0 0.0 0.00 0.90 0.90 95 1013.5
20260903021021 76 86 0.0 0.0 0.00 0.90 0.90 95 1013.4
20260903020517 76 86 0.0 0.0 0.00 0.90 0.90 95 1013.3
20260903020006 76 79 0.0 0.0 0.00 0.90 0.90 95 1013.1
20260903015509 76 82 0.0 0.0 0.00 0.90 0.90 95 1013.0
20260903015004 76 76 0.0 0.0 0.00 0.90 0.90 95 1013.0
20260903014503 76 81 0.0 0.0 0.00 0.90 0.90 95 1013.0
20260903014009 76 87 0.0 0.0 0.01 0.90 0.90 95 1013.1
20260903013504 76 76 0.0 0.0 0.03 0.90 0.90 95 1012.9
20260903013020 76 72 0.0 0.0 0.17 0.90 0.90 95 1012.8
20260903012505 76 90 0.0 0.9 0.57 0.90 0.90 95 1013.1
20260903012004 76 97 0.0 0.9 0.88 0.90 0.90 94 1013.0
20260903011519 76 106 0.0 0.9 0.90 0.90 0.90 94 1012.9
20260903011004 76 96 0.0 0.9 0.90 0.90 0.90 94 1013.2
20260903010504 76 68 0.0 2.6 0.90 0.90 0.90 93 1013.2
20260903010016 76 80 0.9 2.6 0.90 0.90 0.90 93 1013.2
20260903005504 77 98 0.0 3.5 0.90 0.90 0.90 93 1013.0
20260903005012 78 74 0.0 3.5 0.90 0.90 0.90 93 1013.1
20260903004520 78 68 0.9 2.6 0.90 0.90 0.90 93 1013.2
20260903004003 78 89 0.0 4.3 0.89 0.89 0.89 92 1013.0
20260903003510 78 93 0.0 4.3 0.87 0.87 0.87 92 1012.7
20260903003017 79 96 1.7 4.3 0.73 0.73 0.73 91 1012.4
20260903002517 80 49 0.0 4.3 0.33 0.33 0.33 89 1013.2
20260903002008 81 8 0.0 2.6 0.02 0.02 0.02 86 1013.3
20260903001517 81 286 0.0 0.9 0.00 0.00 0.00 83 1013.1
20260903001013 81 311 0.0 2.6 0.00 0.00 0.00 82 1012.8
20260903000505 82 301 0.0 3.5 0.00 0.00 0.00 81 1012.7
20260903000006 83 99 0.0 6.1 0.00 0.00 0.00 80 1012.3